Content
SEND FEEDBACK

Daily
Averages
Monthly
Summary
Turkmenistan

ASHGABAT, TURKMENISTAN


Home > Asia > Turkmenistan
Elevation: 775 feet     Latitude: 37 58N     Longitude: 058 20E

WEATHER
 
SELECT A DAY
Number of Records: 177,237;   Date Range: 3/15/97 - 7/26/14
 
SHARE

PRINT THIS DATA

[ ← Previous Day ]
WEATHER ALMANAC - SEPTEMBER 21, 2013
[ Next Day → ]
[ °C ]   °F
Weather ElementAverageHighLow
Temperature85 °F96.8 °F (3:00 pm)71.6 °F (5:00 am)
Dewpoint53.9 °F60 °F (2:00 am)48.2 °F (1:00 pm)
Humidity35.3 %57 % (5:00 am)19 % (4:00 pm)
Barometer29.79 in29.83 in (8:00 am)29.74 in (5:00 pm)
Wind Speed3.6 mph8.9 mph (2:00 pm)
Weather ElementAverage
Visibility6 mi
Wind DirectionSSE (152.6 °)

Weather ElementTotal
Precipitation---
Cooling Degree Days19.2 (Base 65)
Growing Degree Days34.2 (Base 50)
Averaged from 28 records on September 21, 2013
WEATHER CONDITIONS BREAKOUT
WIND DIRECTION BREAKOUT
WEATHER BY HOUR - SEPTEMBER 21, 2013
[ °C ]   °F
Local TimeTemperatureDewpointHumidityBarometerVisibilityWind DirectionWind SpeedGust SpeedPrecipitationEventsConditions
1:00 AM75.2 °F57.2 °F53 %29.77 in6.2 miCalmClear
2:00 AM73.0 °F60.0 °F54 %29.77 in6.0 miWSW (250°)4.5 mph
2:00 AM75.2 °F55.4 °F50 %29.77 in4.3 miWSW (250°)4.5 mphClear
3:00 AM73.4 °F55.4 °F53 %29.77 in6.2 miCalmClear
4:00 AM73.4 °F55.4 °F53 %29.77 in6.2 miWNW (300°)4.5 mphClear
5:00 AM71.6 °F55.4 °F57 %29.77 in6.2 miSW (230°)4.5 mphClear
6:00 AM71.6 °F55.4 °F57 %29.80 in6.2 miSW (230°)4.5 mphClear
7:00 AM71.6 °F53.6 °F53 %29.80 in6.2 miVariable2.2 mphClear
8:00 AM73.4 °F55.4 °F53 %29.83 in6.2 miSSW (210°)4.5 mphClear
9:00 AM82.4 °F55.4 °F39 %29.83 in6.2 miCalmClear
10:00 AM87.8 °F53.6 °F31 %29.83 in6.2 miWest (270°)2.2 mphPartly Cloudy
11:00 AM91.4 °F51.8 °F26 %29.83 in6.2 miVariable2.2 mphScattered Clouds
12:00 PM93.2 °F51.8 °F24 %29.83 in6.2 miENE (70°)6.7 mphMostly Cloudy
1:00 PM93.2 °F48.2 °F21 %29.80 in6.2 miNE (50°)4.5 mphMostly Cloudy
2:00 PM95.0 °F50.0 °F22 %29.80 in6.2 miNW (310°)8.9 mphMostly Cloudy
2:00 PM94.0 °F60.0 °F22 %29.78 in6.0 miNNW (330°)8.9 mphScattered Clouds
3:00 PM96.8 °F50.0 °F20 %29.77 in6.2 miWNW (300°)4.5 mphMostly Cloudy
4:00 PM96.8 °F48.2 °F19 %29.77 in6.2 miVariable2.2 mphMostly Cloudy
5:00 PM96.0 °F59.0 °F20 %29.74 in6.0 miNNE (20°)2.2 mphPartly Cloudy
5:00 PM96.8 °F48.2 °F19 %29.77 in6.2 miNNW (340°)4.5 mphMostly Cloudy
6:00 PM96.8 °F48.2 °F19 %29.77 in6.2 miCalmScattered Clouds
7:00 PM95.0 °F50.0 °F22 %29.77 in6.2 miCalmMostly Cloudy
8:00 PM87.0 °F59.0 °F29 %29.76 in6.0 miCalmPartly Cloudy
8:00 PM87.8 °F53.6 °F31 %29.80 in6.2 miCalmMostly Cloudy
9:00 PM84.2 °F55.4 °F37 %29.80 in4.3 miSSW (200°)4.5 mphMostly Cloudy
10:00 PM84.2 °F51.8 °F33 %29.80 in6.2 miWSW (250°)6.7 mphScattered Clouds
11:00 PM80.0 °F59.0 °F38 %29.78 in6.0 miWest (260°)6.7 mphScattered Clouds
11:00 PM84.2 °F51.8 °F33 %29.80 in6.2 miWSW (250°)6.7 mphPartly Cloudy
Hourly data recorded from UTAA, located miles away from Ashgabat, Turkmenistan







STORIES FROM OUR PARTNERS